| time (UTC) | temp F | wind direction | speed MPH | gust MPH | rain 1hr in | rain 24hr in | rain mn in | humidity % | barometer mb |
| 20260504234551 | 35 | 223 | 1.0 | 0.0 | 0.00 | 0.00 | 0.00 | 76 | 1007.8 |
| 20260504233054 | 36 | 213 | 1.0 | 0.0 | 0.00 | 0.00 | 0.00 | 77 | 1007.7 |
| 20260504231548 | 36 | 206 | 1.0 | 0.0 | 0.00 | 0.00 | 0.00 | 76 | 1007.7 |
| 20260504230107 | 36 | 224 | 2.0 | 0.0 | 0.00 | 0.00 | 0.00 | 75 | 1007.9 |
| 20260504224600 | 36 | 182 | 4.0 | 0.0 | 0.00 | 0.00 | 0.00 | 77 | 1007.9 |
| 20260504223047 | 36 | 193 | 4.0 | 0.0 | 0.00 | 0.00 | 0.00 | 75 | 1007.8 |
| 20260504221546 | 37 | 141 | 7.0 | 0.0 | 0.00 | 0.00 | 0.00 | 68 | 1007.3 |
| 20260504220052 | 38 | 215 | 4.0 | 0.0 | 0.00 | 0.00 | 0.00 | 70 | 1007.7 |
| 20260504214546 | 37 | 203 | 6.0 | 0.0 | 0.00 | 0.00 | 0.00 | 69 | 1008.1 |
| 20260504213043 | 38 | 213 | 5.0 | 0.0 | 0.00 | 0.00 | 0.00 | 68 | 1008.1 |
| 20260504211543 | 38 | 206 | 5.0 | 0.0 | 0.00 | 0.00 | 0.00 | 66 | 1008.4 |
| 20260504210055 | 39 | 205 | 3.0 | 0.0 | 0.00 | 0.00 | 0.00 | 65 | 1008.6 |
| 20260504204548 | 39 | 186 | 3.0 | 0.0 | 0.00 | 0.00 | 0.00 | 64 | 1008.9 |
| 20260504203044 | 39 | 205 | 3.0 | 0.0 | 0.00 | 0.00 | 0.00 | 63 | 1008.5 |
| 20260504201546 | 38 | 202 | 4.0 | 0.0 | 0.00 | 0.00 | 0.00 | 64 | 1009.1 |
| 20260504200050 | 38 | 202 | 4.0 | 0.0 | 0.00 | 0.00 | 0.00 | 64 | 1008.9 |
| 20260504194539 | 38 | 199 | 5.0 | 0.0 | 0.00 | 0.00 | 0.00 | 65 | 1009.0 |
| 20260504193043 | 41 | 203 | 3.0 | 0.0 | 0.00 | 0.00 | 0.00 | 60 | 1008.3 |
| 20260504191539 | 40 | 148 | 4.0 | 0.0 | 0.00 | 0.00 | 0.00 | 60 | 1008.4 |
| 20260504190037 | 40 | 212 | 3.0 | 0.0 | 0.00 | 0.00 | 0.00 | 58 | 1007.6 |
| 20260504184539 | 40 | 205 | 3.0 | 0.0 | 0.00 | 0.00 | 0.00 | 54 | 1007.8 |
| 20260504183037 | 41 | 203 | 3.0 | 0.0 | 0.00 | 0.00 | 0.00 | 58 | 1007.6 |
| 20260504181535 | 41 | 200 | 1.0 | 0.0 | 0.00 | 0.00 | 0.00 | 57 | 1007.6 |
| 20260504180035 | 40 | 133 | 2.0 | 0.0 | 0.00 | 0.00 | 0.00 | 56 | 1007.6 |
| 20260504174534 | 40 | 192 | 1.0 | 0.0 | 0.00 | 0.00 | 0.00 | 52 | 1007.2 |
| 20260504173034 | 41 | 203 | 1.0 | 0.0 | 0.00 | 0.00 | 0.00 | 53 | 1006.9 |
| 20260504171532 | 41 | 117 | 1.0 | 0.0 | 0.00 | 0.00 | 0.00 | 51 | 1007.0 |
| 20260504081544 | 34 | 137 | 1.0 | 0.0 | 0.00 | 0.00 | 0.00 | 87 | 1003.3 |
| 20260504050022 | 36 | 202 | 4.0 | 0.0 | 0.00 | 0.00 | 0.00 | 87 | 1002.9 |
| 20260504044520 | 36 | 171 | 4.0 | 0.0 | 0.00 | 0.00 | 0.00 | 85 | 1002.9 |
| 20260504043018 | 37 | 189 | 3.0 | 0.0 | 0.00 | 0.00 | 0.00 | 85 | 1002.8 |
| 20260504041515 | 37 | 168 | 3.0 | 0.0 | 0.00 | 0.00 | 0.00 | 85 | 1002.4 |
| 20260504040014 | 37 | 119 | 3.0 | 0.0 | 0.00 | 0.00 | 0.00 | 84 | 1002.7 |
| 20260504034511 | 38 | 217 | 2.0 | 0.0 | 0.00 | 0.00 | 0.00 | 84 | 1003.0 |
| 20260504033012 | 38 | 176 | 2.0 | 0.0 | 0.00 | 0.00 | 0.00 | 84 | 1002.6 |
| 20260504031511 | 38 | 213 | 4.0 | 0.0 | 0.00 | 0.00 | 0.00 | 83 | 1002.5 |
| 20260504030005 | 39 | 217 | 5.0 | 0.0 | 0.00 | 0.00 | 0.00 | 81 | 1002.6 |
| 20260504024502 | 40 | 172 | 5.0 | 0.0 | 0.00 | 0.00 | 0.00 | 80 | 1002.4 |
| 20260504023059 | 40 | 144 | 4.0 | 0.0 | 0.00 | 0.00 | 0.00 | 75 | 1002.0 |
| 20260504021557 | 41 | 172 | 2.0 | 0.0 | 0.00 | 0.00 | 0.00 | 75 | 1001.9 |
| 20260504020104 | 42 | 196 | 4.0 | 0.0 | 0.00 | 0.00 | 0.00 | 71 | 1001.8 |
| 20260504014550 | 44 | 124 | 2.0 | 0.0 | 0.00 | 0.00 | 0.00 | 68 | 1002.0 |
| 20260504013052 | 45 | 134 | 1.0 | 0.0 | 0.00 | 0.00 | 0.00 | 66 | 1001.8 |
| 20260504011544 | 47 | 208 | 3.0 | 0.0 | 0.00 | 0.00 | 0.00 | 62 | 1001.6 |
| 20260504010052 | 52 | 209 | 2.0 | 0.0 | 0.00 | 0.00 | 0.00 | 45 | 1000.6 |
| 20260504004545 | 51 | 169 | 2.0 | 0.0 | 0.00 | 0.00 | 0.00 | 43 | 1000.8 |
| 20260504003042 | 51 | 140 | 3.0 | 0.0 | 0.00 | 0.00 | 0.00 | 51 | 1001.1 |
| 20260504001541 | 50 | 226 | 4.0 | 0.0 | 0.00 | 0.00 | 0.00 | 54 | 1001.1 |
| 20260504000038 | 52 | 233 | 4.0 | 0.0 | 0.00 | 0.00 | 0.00 | 47 | 1000.3 |